Location: Crescent
(42.8242°N, 73.7329°W)
Time: 20:26:11
(UTC+00:00)

Vanguard 2 Rocket - Pass Details

Date: 21 February 2026
Orbit: 553 x 3287 km, 32.9° (Epoch: 5 March)

Event Time Altitude Azimuth Distance (km) Brightness Sun altitude
Rises 23:26:21 0° 273° (W) 5,740 13.1 -10.2°
Reaches altitude 10° 23:35:26 10° 238° (WSW) 3,774 11.1 -11.9°
Maximum altitude 23:36:29 10° 232° (SW) 3,640 10.8 -12.1°
Drops below altitude 10° 23:37:28 10° 225° (SW) 3,542 10.6 -12.3°
Sets 23:43:42 0° 184° (S) 3,780 10.2 -13.4°
